DW1083 Weather Reports


Display with metric or nautical units.
time (UTC)temp
F
wind
direction
speed
MPH
gust
MPH
rain 1hr
in
rain 24hr
in
rain mn
in
humidity
%
barometer
mb
20260906053311 54 0 0.0 0.0 0.00 0.00 0.00 94 1025.7
20260906050310 55 0 0.0 0.0 0.00 0.00 0.00 94 1025.8
20260906043310 55 0 0.0 0.0 0.00 0.00 0.00 94 1025.8
20260906040310 55 0 0.0 0.0 0.00 0.00 0.00 94 1026.0
20260906033310 55 0 0.0 0.0 0.00 0.00 0.00 94 1025.7
20260906030310 55 0 0.0 0.0 0.00 0.00 0.00 93 1025.9
20260906023310 56 0 0.0 0.0 0.00 0.00 0.00 93 1026.1
20260906013312 56 0 0.0 0.0 0.00 0.00 0.00 92 1026.1
20260906010310 56 0 0.0 0.0 0.00 0.00 0.00 92 1025.8
20260905233310 58 0 0.0 0.0 0.00 0.00 0.00 90 1025.9
20260905230309 58 0 0.0 0.0 0.00 0.00 0.00 89 1026.0
20260905223310 59 0 0.0 0.0 0.00 0.00 0.00 88 1026.0
20260905220309 60 0 0.0 0.0 0.00 0.00 0.00 87 1025.9
20260905213311 59 0 0.0 0.0 0.00 0.00 0.00 90 1025.4
20260905210309 59 0 0.0 0.0 0.00 0.00 0.00 86 1024.7
20260905200309 60 0 0.0 0.0 0.00 0.00 0.00 88 1024.5
20260905193309 61 0 0.0 0.0 0.00 0.00 0.00 83 1024.2
20260905190309 62 0 0.0 0.0 0.00 0.00 0.00 82 1023.6
20260905180309 64 0 0.0 0.0 0.00 0.00 0.00 85 1022.8
20260905173309 65 0 0.0 0.0 0.00 0.00 0.00 85 1022.0
20260905170309 66 0 0.0 0.0 0.00 0.00 0.00 84 1021.7
20260905163309 67 0 0.0 0.0 0.00 0.00 0.00 81 1021.6
20260905153309 70 0 0.0 0.0 0.00 0.00 0.00 76 1021.7
20260905150309 71 157 1.0 4.0 0.00 0.00 0.00 71 1021.7
20260905143308 73 292 2.0 5.0 0.00 0.00 0.00 71 1021.8
20260905140308 73 67 0.0 2.0 0.00 0.00 0.00 73 1021.9
20260905133308 73 135 0.0 1.0 0.00 0.00 0.00 76 1021.9
20260905130308 72 180 0.0 3.0 0.00 0.00 0.00 80 1021.7
20260905123313 72 0 0.0 0.0 0.00 0.00 0.00 76 1021.8
20260905120313 73 0 0.0 0.0 0.00 0.00 0.00 74 1021.6
20260905113313 72 0 0.0 0.0 0.00 0.00 0.00 78 1021.6
20260905110313 72 0 0.0 0.0 0.00 0.00 0.00 75 1021.3
20260905103313 73 0 0.0 0.0 0.00 0.00 0.00 72 1021.6
20260905100313 74 0 0.0 0.0 0.00 0.00 0.00 75 1021.8
20260905093313 72 0 0.0 0.0 0.00 0.00 0.00 76 1021.4
20260905090313 70 0 0.0 0.0 0.00 0.00 0.00 80 1021.0
20260905083312 70 0 0.0 0.0 0.00 0.00 0.00 79 1020.9
20260905080312 68 0 0.0 0.0 0.00 0.00 0.00 78 1020.6
20260905073312 68 0 0.0 0.0 0.00 0.00 0.00 83 1020.3
20260905070312 66 0 0.0 0.0 0.00 0.00 0.00 83 1020.4
20260905063312 64 0 0.0 0.0 0.00 0.00 0.00 88 1019.9
20260905060312 61 0 0.0 0.0 0.00 0.00 0.00 87 1019.5